カタログに戻る

STARLINK-34680

運用中通信VLEO
NORAD 65356·PAYLOAD·🇺🇸 United States

打ち上げ Aug 28, 2025 から Cape Canaveral Space Force Station

Loading…

次のパス (今後24時間)

TLE

最新Source: CelesTrak SupGP

元期: Sep 14, 2026, 22:55 UTC

1 65356C 25190F   26257.95534722 -.00010800  00000+0 -31922-3 0  2578
2 65356  53.1592   7.6174 0001183  83.0764 254.1982 15.34384057    10

AllMySatでSTARLINK-34680をリアルタイム追跡

Download on the App Store